Station NWHC3 - 8465705 - New Haven, CT Image indicating link to RSS feed of recent meteorological observations for station NWHC3


Conditions at NWHC3 as of
(1:54 am EDT)
0554 GMT on 06/21/2024:
     

Click on the graph icon in the table below to see a time series plot of the last five days of that observation.

5-day plot - Wind Direction Wind Direction (WDIR): S ( 180 deg true )
5-day plot - Wind Speed Wind Speed (WSPD): 2.9 kts
5-day plot - Wind Gust Wind Gust (GST): 5.1 kts
5-day plot - Atmospheric Pressure Atmospheric Pressure (PRES):30.21 in
5-day plot - Air Temperature Air Temperature (ATMP): 72.0 °F
5-day plot - Water Temperature Water Temperature (WTMP): 66.0 °F
5-day plot - Wind Speed at 10 Meters Wind Speed at 10 meters (WSPD10M): 3.9 kts
5-day plot - Wind Speed at 20 Meters Wind Speed at 20 meters (WSPD20M): 3.9 kts
5-day plot -  Wind Speed, Wind Gust and Atmospheric Pressure Combined plot of Wind Speed, Gust, and Air Pressure
NOS Water Level Observation Network Water Level
Previous observations
TIME
(EDT)
5-day plot - Wind Direction
WDIR
 
5-day plot - Wind Speed
WSPD
kts
5-day plot - Wind Gust
GST
kts
5-day plot - Wave Height
WVHT
ft
5-day plot - Dominant Wave Period
DPD
sec
5-day plot - Average Wave Period
APD
sec
5-day plot - Mean Wave Direction
MWD
 
5-day plot - Atmospheric Pressure
PRES
in
5-day plot - Pressure Tendency
PTDY
in
5-day plot - Air Temperature
ATMP
°F
5-day plot - Water Temperature
WTMP
°F
5-day plot - Dew Point
DEWP
°F
5-day plot - Salinity
SAL
psu
5-day plot - Visibility
VIS
nmi
5-day plot - Tide (above MLLW)
TIDE
ft
2024-06-21 01:48 am S 5.1 7.0----30.20- 72.0 66.0----
2024-06-21 01:42 am S 6.0 7.0----30.20- 72.1 66.0----
2024-06-21 01:36 am S 2.9 5.1----30.20- 72.3 66.0----
2024-06-21 01:30 am S 2.9 4.1----30.20- 72.3 66.0----
2024-06-21 01:24 am S 4.1 5.1----30.20- 72.5 66.0----
2024-06-21 01:18 am S 4.1 5.1----30.21- 72.7 66.0----
2024-06-21 01:12 am S 5.1 6.0----30.21- 72.7 66.0----
2024-06-21 01:06 am S 4.1 5.1----30.21- 72.7 66.0----
2024-06-21 01:00 amSSE 4.1 6.0----30.21-0.02 72.9 66.0----
2024-06-21 12:54 amSSE 4.1 5.1----30.21- 73.0 66.0----
2024-06-21 12:48 am S 4.1 5.1----30.22- 73.0 66.0----
2024-06-21 12:42 amSSE 4.1 4.1----30.22- 72.9 66.2----
2024-06-21 12:36 am S 4.1 5.1----30.22- 73.0 66.2----
2024-06-21 12:30 am S 4.1 5.1----30.22- 73.0 66.2----
2024-06-21 12:24 amSSE 4.1 5.1----30.22- 72.9 66.2----
2024-06-21 12:18 amSSE 4.1 5.1----30.23- 72.9 66.4----
2024-06-21 12:12 am SE 2.9 6.0----30.23- 73.0 66.4----
2024-06-21 12:06 am S 5.1 5.1----30.23- 73.2 66.4----
2024-06-21 12:00 am S 4.1 6.0----30.24+0.01 73.4 66.4----
2024-06-20 11:54 pm S 5.1 6.0----30.23- 73.4 66.4----
2024-06-20 11:48 pm S 4.1 6.0----30.24- 73.8 66.4----
2024-06-20 11:42 pm S 6.0 7.0----30.24- 73.8 66.6----
2024-06-20 11:36 pm S 6.0 6.0----30.24- 73.9 66.6----
2024-06-20 11:30 pm S 5.1 6.0----30.24- 74.3 66.6----
2024-06-20 11:24 pm S 5.1 7.0----30.24- 74.1 66.7----
2024-06-20 11:18 pm S 6.0 7.0----30.24- 73.9 66.7----
2024-06-20 11:12 pm S 5.1 6.0----30.25- 74.1 66.9----
2024-06-20 11:06 pm S 2.9 4.1----30.25- 74.1 67.1----
2024-06-20 11:00 pm SE 1.9 1.9----30.25+0.04 74.1 67.5----
2024-06-20 10:54 pm- 0.0 1.0----30.25- 73.8 67.6----
2024-06-20 10:48 pmNNE 2.9 7.0----30.25- 73.8 67.5----
2024-06-20 10:42 pmENE 1.0 4.1----30.25- 73.2 67.3----
2024-06-20 10:36 pm S 4.1 5.1----30.24- 72.9 67.3----
2024-06-20 10:30 pmSSW 5.1 6.0----30.24- 72.9 67.5----
2024-06-20 10:24 pmSSW 5.1 6.0----30.24- 73.0 67.6----
2024-06-20 10:18 pmSSW 5.1 7.0----30.24- 73.2 67.8----
2024-06-20 10:12 pmSSW 7.0 8.0----30.24- 73.4 68.0----
2024-06-20 10:06 pm S 7.0 8.0----30.24- 73.6 68.2----
2024-06-20 10:00 pm S 7.0 8.0----30.24+0.03 73.8 68.5----
2024-06-20 09:54 pmSSW 7.0 8.0----30.24- 73.9 68.5----
2024-06-20 09:48 pmSSW 6.0 7.0----30.24- 73.8 68.7----
2024-06-20 09:42 pmSSW 6.0 7.0----30.24- 73.8 68.9----
2024-06-20 09:36 pmSSW 7.0 8.0----30.23- 73.8 68.9----
2024-06-20 09:30 pmSSW 6.0 8.0----30.23- 73.9 68.9----
2024-06-20 09:24 pmSSW 6.0 7.0----30.23- 73.8 68.9----
2024-06-20 09:18 pmSSW 6.0 7.0----30.23- 73.9 69.1----
2024-06-20 09:12 pm S 6.0 8.0----30.23- 73.9 69.1----
2024-06-20 09:06 pmSSW 6.0 8.0----30.22- 74.1 69.1----
2024-06-20 09:00 pm S 7.0 8.9----30.22+0.02 74.1 69.1----
2024-06-20 08:54 pm S 7.0 8.0----30.22- 74.1 69.1----
2024-06-20 08:48 pm S 6.0 8.0----30.22- 74.1 69.1----
2024-06-20 08:42 pm S 5.1 8.0----30.22- 74.1 69.3----
2024-06-20 08:36 pm S 6.0 7.0----30.22- 73.9 69.3----
2024-06-20 08:30 pm S 7.0 8.0----30.22- 73.8 69.4----
2024-06-20 08:24 pmSSW 6.0 8.0----30.21- 74.5 69.6----
2024-06-20 08:18 pmSSW 7.0 8.0----30.21- 74.3 69.8----
2024-06-20 08:12 pmSSW 6.0 8.9----30.21- 74.5 70.0----
2024-06-20 08:06 pmSSW 8.0 9.9----30.21- 75.2 70.3----
2024-06-20 08:00 pmSSW 8.0 8.9----30.21-0.01 75.0 70.5----
2024-06-20 07:54 pmSSW 8.9 11.1----30.20- 76.1 70.7----
2024-06-20 07:48 pm SW 9.9 12.0----30.20- 77.2 70.3----
2024-06-20 07:42 pm S 7.0 8.9----30.20- 74.7 70.2----
2024-06-20 07:36 pmSSW 8.0 12.0----30.20- 75.2 70.2----
2024-06-20 07:30 pmSSW 9.9 12.0----30.20- 76.1 70.0----
2024-06-20 07:24 pmSSW 8.9 12.0----30.20- 75.9 70.0----
2024-06-20 07:00 pmSSW 7.0 8.0----30.20-0.03 75.9 69.8----
2024-06-20 06:54 pmSSW 6.0 8.0----30.20- 75.9 70.3----
2024-06-20 06:48 pmSSW 7.0 8.0----30.20- 76.1 71.2----
2024-06-20 06:42 pmSSW 7.0 8.9----30.20- 76.3 71.2----
2024-06-20 06:36 pmSSW 8.0 9.9----30.20- 76.3 71.2----
2024-06-20 06:30 pmSSW 8.9 9.9----30.20-- 71.1----
2024-06-20 06:24 pmSSW 8.0 11.1----30.21-- 71.1----
2024-06-20 06:18 pm SW 9.9 13.0----30.21-------
2024-06-20 06:12 pm SW 12.0 14.0----30.21-------
2024-06-20 06:06 pm SW 12.0 14.0----30.21-------
2024-06-20 06:00 pm SW 12.0 14.0----30.21-0.05 79.0 70.0----
2024-06-20 05:54 pm SW 13.0 14.0----30.21- 79.5 70.3----
2024-06-20 05:48 pm SW 12.0 14.0----30.21- 79.5 71.1----
2024-06-20 05:42 pm SW 12.0 14.0----30.21- 79.2 71.2----
2024-06-20 05:36 pm SW 11.1 13.0----30.21- 79.2 71.1----
2024-06-20 05:30 pm SW 8.9 11.1----30.21- 79.3 70.9----
2024-06-20 05:24 pmSSW 7.0 8.9----30.22- 78.6 71.1----
2024-06-20 05:18 pmSSW 6.0 7.0----30.22- 78.3 71.1----
2024-06-20 05:12 pm S 6.0 7.0----30.22- 77.5 71.4----
2024-06-20 05:06 pm S 5.1 6.0----30.22- 77.0 71.6----
2024-06-20 05:00 pm S 4.1 5.1----30.22-0.05 77.4 72.0----
2024-06-20 04:54 pmSSW 4.1 5.1----30.22- 79.2 72.9----
2024-06-20 04:48 pmSSW 4.1 5.1----30.22- 79.7 73.2----
2024-06-20 04:42 pmSSW 4.1 6.0----30.22- 79.5 73.6----
2024-06-20 04:36 pmSSW 5.1 6.0----30.23- 78.8 73.6----
2024-06-20 04:30 pm SW 5.1 7.0----30.23- 77.4 73.8----
2024-06-20 04:24 pmSSW 6.0 8.9----30.23- 77.7 73.9----
2024-06-20 04:18 pmSSW 8.0 8.0----30.23- 77.7 74.3----
2024-06-20 04:12 pmSSW 7.0 8.0----30.23- 77.7 74.7----
2024-06-20 04:06 pmSSW 8.0 8.9----30.23- 77.7 74.8----
2024-06-20 04:00 pmSSW 8.0 8.9----30.23-0.06 77.7 74.7----
2024-06-20 03:54 pmSSW 8.9 9.9----30.23- 78.3 74.5----
2024-06-20 03:48 pmSSW 8.9 11.1----30.23- 78.6 74.3----
2024-06-20 03:42 pmSSW 9.9 11.1----30.23- 78.8 74.1----
2024-06-20 03:36 pmSSW 9.9 11.1----30.23- 79.0 73.8----
2024-06-20 03:30 pm S 9.9 12.0----30.24-- 73.4----
2024-06-20 03:24 pm S 9.9 12.0----30.24-- 72.9----
2024-06-20 03:18 pm S 11.1 11.1----30.24- 78.6 72.1----
2024-06-20 03:12 pm S 11.1 11.1----30.25- 78.6 71.8----
2024-06-20 03:06 pm S 9.9 11.1----30.25- 78.6 71.6----
2024-06-20 03:00 pm S 9.9 9.9----30.26-0.05 77.9 71.1----
2024-06-20 02:54 pmSSW 8.9 11.1----30.26- 78.3 70.7----
2024-06-20 02:48 pm S 8.9 11.1----30.26- 77.5 70.3----
2024-06-20 02:42 pm S 8.0 9.9----30.26- 76.8 69.8----
2024-06-20 02:36 pm S 8.0 8.9----30.26- 77.5 69.1----
2024-06-20 02:30 pm S 8.0 8.0----30.27- 77.2 68.4----
2024-06-20 02:24 pm S 8.0 8.9----30.27- 77.0 68.0----
2024-06-20 02:18 pmSSW 8.9 9.9----30.27- 77.2 67.5----
2024-06-20 02:12 pmSSW 8.0 8.9----30.27- 77.5 67.5----
2024-06-20 02:06 pm S 8.0 8.0----30.27- 76.6 67.3----
2024-06-20 02:00 pmSSW 8.0 8.0----30.27-0.04 77.4 67.3----
2024-06-20 01:54 pm S 8.0 8.9----30.27- 76.5 67.1----
2024-06-20 01:48 pm S 8.0 9.9----30.28- 76.3 66.9----
2024-06-20 01:42 pm S 8.9 9.9----30.28- 75.9 66.9----
2024-06-20 01:36 pm S 8.9 11.1----30.28- 76.3 66.9----
2024-06-20 01:30 pm S 9.9 11.1----30.28- 76.1 66.9----
2024-06-20 01:24 pm S 8.9 9.9----30.28- 75.9 66.9----
2024-06-20 01:18 pm S 8.9 9.9----30.29- 75.9 66.9----
2024-06-20 01:12 pm S 8.9 9.9----30.29- 76.1 66.9----
2024-06-20 01:06 pm S 9.9 9.9----30.29- 76.5 66.7----
2024-06-20 01:00 pm S 9.9 12.0----30.29-0.02 76.3 66.7----
2024-06-20 12:54 pm S 11.1 12.0----30.29- 76.3 66.7----
2024-06-20 12:48 pm S 11.1 12.0----30.29- 76.1 66.7----
2024-06-20 12:42 pm S 11.1 12.0----30.29- 76.1 66.9----
2024-06-20 12:36 pm S 9.9 9.9----30.30- 76.3 66.7----
2024-06-20 12:30 pm S 8.9 9.9----30.30- 75.7 66.7----
2024-06-20 12:24 pm S 9.9 9.9----30.30- 75.6 66.7----
2024-06-20 12:18 pm S 8.9 9.9----30.30- 75.4 66.7----
2024-06-20 12:12 pm S 8.9 9.9----30.30- 74.8 66.7----
2024-06-20 12:06 pmSSW 8.0 9.9----30.31- 75.2 66.7----
2024-06-20 12:00 pmSSW 8.9 9.9----30.31+0.00 75.0 66.7----
2024-06-20 11:54 amSSW 8.9 11.1----30.31- 74.5 66.9----
2024-06-20 11:48 amSSW 9.9 11.1----30.31- 74.5 66.9----
2024-06-20 11:42 amSSW 8.9 9.9----30.31- 74.5 66.9----
2024-06-20 11:36 amSSW 8.9 9.9----30.31- 74.1 66.7----
2024-06-20 11:30 amSSW 8.9 9.9----30.31- 73.9 66.7----
2024-06-20 11:24 amSSW 9.9 12.0----30.31- 73.8 66.7----
2024-06-20 11:18 amSSW 11.1 12.0----30.31- 73.6 66.9----
2024-06-20 11:12 amSSW 11.1 13.0----30.31- 73.4 66.9----
2024-06-20 11:06 amSSW 12.0 13.0----30.31- 73.4 66.9----
2024-06-20 11:00 amSSW 11.1 12.0----30.31+0.00 73.2 66.9----
2024-06-20 10:54 amSSW 11.1 12.0----30.31- 72.7 66.9----
2024-06-20 10:48 amSSW 9.9 12.0----30.31- 72.3 66.7----
2024-06-20 10:42 amSSW 9.9 12.0----30.31- 72.3 66.7----
2024-06-20 10:36 am SW 9.9 12.0----30.31- 72.1 66.9----
2024-06-20 10:30 am SW 11.1 12.0----30.31- 71.6 66.9----
2024-06-20 10:24 amSSW 11.1 12.0----30.31- 71.8 66.9----
2024-06-20 10:18 amSSW 11.1 12.0----30.31- 71.6 66.9----
2024-06-20 10:12 amSSW 11.1 12.0----30.31- 71.2 67.1----
2024-06-20 10:06 amSSW 11.1 12.0----30.31- 71.2 67.1----
2024-06-20 10:00 am SW 11.1 12.0----30.31+0.00 71.1 67.3----
2024-06-20 09:54 am SW 11.1 12.0----30.31- 70.9 67.5----
2024-06-20 09:48 amSSW 9.9 13.0----30.31- 70.9 68.0----
2024-06-20 09:42 amSSW 11.1 13.0----30.31- 70.9 68.4----
2024-06-20 09:36 amSSW 9.9 12.0----30.31- 70.7 68.4----
2024-06-20 09:30 amSSW 9.9 11.1----30.31- 70.5 68.5----
2024-06-20 09:24 amSSW 9.9 12.0----30.31- 70.5 68.7----
2024-06-20 09:18 amSSW 11.1 12.0----30.30- 70.5 68.5----
2024-06-20 09:12 amSSW 8.9 11.1----30.30- 70.5 68.5----
2024-06-20 09:06 amSSW 9.9 12.0----30.30- 70.7 68.9----
2024-06-20 09:00 amSSW 11.1 12.0----30.31+0.00 70.7 69.1----
2024-06-20 08:54 amSSW 9.9 12.0----30.31- 70.5 68.9----
2024-06-20 08:48 amSSW 9.9 11.1----30.31- 70.5 68.5----
2024-06-20 08:42 amSSW 8.9 9.9----30.31- 70.9 68.5----
2024-06-20 08:36 amSSW 8.0 9.9----30.31- 70.9 68.5----
2024-06-20 08:30 amSSW 8.0 8.9----30.31- 70.7 68.4----
2024-06-20 08:24 amSSW 8.0 8.9----30.31- 70.7 68.4----
2024-06-20 08:18 amSSW 8.0 9.9----30.31- 70.9 68.4----
2024-06-20 08:12 am SW 8.0 8.9----30.31- 70.7 68.4----
2024-06-20 08:06 amSSW 7.0 8.0----30.31- 70.9 68.5----
2024-06-20 08:00 amSSW 7.0 8.0----30.31+0.01 70.9 68.4----
2024-06-20 07:54 amSSW 7.0 8.0----30.31- 70.9 68.4----
2024-06-20 07:48 amSSW 7.0 8.0----30.30- 70.9 68.4----
2024-06-20 07:42 amSSW 6.0 7.0----30.31- 71.1 68.4----
2024-06-20 07:36 amSSW 6.0 8.0----30.31- 70.9 68.4----
2024-06-20 07:30 amSSW 6.0 7.0----30.31- 71.1 68.4----
2024-06-20 07:24 am S 6.0 7.0----30.31- 70.9 68.4----
2024-06-20 07:18 amSSW 5.1 6.0----30.31- 71.6 68.5----
2024-06-20 07:12 amSSW 5.1 5.1----30.31- 71.8 68.9----
2024-06-20 07:06 am SW 4.1 5.1----30.31- 71.4 69.4----
2024-06-20 07:00 am SW 4.1 5.1----30.31+0.01 71.1 69.8----
2024-06-20 06:54 am SW 5.1 6.0----30.31- 70.9 69.4----
2024-06-20 06:48 amSSW 5.1 6.0----30.31- 70.9 69.3----
2024-06-20 06:42 amSSW 5.1 6.0----30.30- 70.7 69.4----
2024-06-20 06:36 amSSW 6.0 6.0----30.30- 70.2 69.4----
2024-06-20 06:30 amSSW 6.0 6.0----30.30- 70.3 69.4----
2024-06-20 06:24 amSSW 5.1 6.0----30.30- 70.2 69.4----
2024-06-20 06:18 amSSW 5.1 6.0----30.30- 70.5 69.4----
2024-06-20 06:12 amSSW 5.1 6.0----30.30- 70.3 69.4----
2024-06-20 06:06 amSSW 6.0 7.0----30.30- 70.0 69.4----
2024-06-20 06:00 amSSW 6.0 7.0----30.30+0.00 70.0 69.4----
2024-06-20 05:54 amSSW 6.0 6.0----30.30- 69.8 69.4----
2024-06-20 05:48 amSSW 6.0 7.0----30.30- 70.0 69.4----
2024-06-20 05:42 amSSW 5.1 6.0----30.30- 70.0 69.6----
2024-06-20 05:36 amSSW 5.1 6.0----30.30- 70.0 69.6----
2024-06-20 05:30 amSSW 5.1 5.1----30.30- 70.0 69.6----
2024-06-20 05:24 amSSW 4.1 5.1----30.29- 69.8 69.8----
2024-06-20 05:18 am S 5.1 5.1----30.29- 69.8 69.8----
2024-06-20 05:12 am S 4.1 4.1----30.29- 69.3 69.8----
2024-06-20 05:06 am S 4.1 5.1----30.29- 69.6 69.8----
2024-06-20 05:00 amSSW 2.9 4.1----30.29-0.01 69.6 70.2----
2024-06-20 04:54 amSSW 2.9 4.1----30.29- 69.6 70.7----
2024-06-20 04:48 amSSW 2.9 4.1----30.30- 69.4 70.7----
2024-06-20 04:42 amSSW 2.9 5.1----30.30- 69.4 70.5----
2024-06-20 04:36 amSSW 4.1 5.1----30.30- 69.6 70.2----
2024-06-20 04:30 amSSW 5.1 6.0----30.30- 69.6 70.2----
2024-06-20 04:24 am SW 5.1 6.0----30.30- 69.6 69.8----
2024-06-20 04:18 am SW 5.1 6.0----30.30- 69.6 69.6----
2024-06-20 04:12 am SW 5.1 6.0----30.30- 69.8 69.6----
2024-06-20 04:06 amSSW 5.1 6.0----30.30- 69.8 69.4----
2024-06-20 04:00 amSSW 6.0 6.0----30.30-0.02 69.8 68.9----
2024-06-20 03:54 amSSW 6.0 7.0----30.30- 70.0 68.5----
2024-06-20 03:48 amSSW 6.0 7.0----30.30- 70.0 68.4----
2024-06-20 03:42 am S 6.0 7.0----30.30- 70.0 68.0----
2024-06-20 03:36 am S 6.0 6.0----30.30- 70.2 67.8----
2024-06-20 03:30 am S 5.1 6.0----30.30- 70.2 67.8----
2024-06-20 03:24 am S 5.1 6.0----30.30- 70.2 67.8----
2024-06-20 03:18 am S 5.1 6.0----30.30- 70.0 67.8----
2024-06-20 03:12 am S 5.1 5.1----30.30- 69.8 67.8----
2024-06-20 03:06 am S 4.1 5.1----30.30- 69.8 68.0----
2024-06-20 03:00 amSSW 5.1 5.1----30.30-0.02 70.0 68.0----
2024-06-20 02:54 amSSW 4.1 5.1----30.30- 70.0 68.0----
2024-06-20 02:48 amSSW 5.1 6.0----30.30- 70.0 67.8----
2024-06-20 02:42 amSSW 6.0 7.0----30.30- 70.2 67.6----
2024-06-20 02:36 amSSW 6.0 7.0----30.30- 70.2 67.5----
2024-06-20 02:30 amSSW 6.0 7.0----30.30- 70.2 67.1----
2024-06-20 02:24 amSSW 6.0 8.0----30.30- 70.3 67.1----
2024-06-20 02:18 amSSW 7.0 8.0----30.30- 70.5 67.1----
2024-06-20 02:12 amSSW 7.0 7.0----30.30- 70.5 67.1----
2024-06-20 02:06 amSSW 7.0 7.0----30.30- 70.5 67.1----
2024-06-20 02:00 amSSW 6.0 7.0----30.30-0.03 70.5 67.1----
2024-06-20 01:54 amSSW 5.1 6.0----30.30- 70.5 67.1----